Air Resources Laboratory banner image
Air Resources Laboratory web site National Oceanic and Atmospheric Administration (NOAA)

al roundup


Office: HUN

ASUS44 KHUN 170410
RWRHUN

WEATHER ROUNDUP FOR THE TENNESSEE VALLEY
NATIONAL WEATHER SERVICE HUNTSVILLE AL
1100 PM CDT TUE AUG 16 2022

ALZ001>004-170500-
NORTHWEST ALABAMA

CITY           SKY/WX    TMP DP  RH WIND       PRES   REMARKS
BANKHEAD NF      N/A     71  68  89 CALM        N/A
SHOALS AIRPORT CLOUDY    74  66  76 VRB3      29.99F
$$

ALZ005>007-016-170500-
NORTH CENTRAL ALABAMA

CITY           SKY/WX    TMP DP  RH WIND       PRES   REMARKS
CULLMAN AG STN   N/A     72 N/A N/A CALM        N/A
DECATUR AP     CLOUDY    72  68  87 N3        29.99F
HUNTSVILLE AP  CLOUDY    74  67  78 N3        29.98F
HUN NWS/UAH      N/A     74  66  76 N3          N/A
MERIDIANVILLE  CLOUDY    71  67  87 N3        30.01S
VINEMONT AP    MOCLDY    72  68  88 CALM      30.01F
$$

ALZ008>010-170500-
NORTHEAST ALABAMA

CITY           SKY/WX    TMP DP  RH WIND       PRES   REMARKS
ALBERTVILLE    CLOUDY    72  66  83 N5        30.00S
FORT PAYNE     CLOUDY    70  67  90 CALM      29.99R
SCOTTSBORO AP  CLOUDY    73  68  83 CALM      29.99S
$$

TNZ076-096-097-170500-
SOUTHEASTERN MIDDLE TENNESSEE

CITY           SKY/WX    TMP DP  RH WIND       PRES   REMARKS
FAYETTEVILLE   CLOUDY    70  66  88 N7        30.03R
TULLAHOMA      CLEAR     68  64  88 N5        30.01S
WINCHESTER     CLOUDY    70  64  83 CALM      30.00F
$$

...SURROUNDING SITES...

CITY           SKY/WX    TMP DP  RH WIND       PRES   REMARKS
ATLANTA        MOCLDY    76  67  73 N6        29.97S
ANNISTON       PTCLDY    74  68  81 CALM      29.96S
BIRMINGHAM     MOCLDY    74  65  73 CALM      29.99S
CHATTANOOGA    CLOUDY    74  64  71 NW5       29.98F
CORINTH        CLOUDY    72  70  94 CALM      29.99F
DALTON         NOT AVBL
GADSDEN        MOCLDY    72  70  93 CALM      29.98S
GOLDEN TRNGL   MOCLDY    78  71  79 NE8       29.94F
HALEYVILLE     FAIR      70  67  90 CALM      30.02F
JACKSON TN     MOCLDY    71  69  93 N5        30.02S
MEMPHIS        CLOUDY    76  68  76 E9        29.99F
NASHVILLE      PTCLDY    72  63  73 NW5       30.02S
OXFORD MS      CLOUDY    73  66  78 NE7       29.99F
ROME           MOCLDY    75  68  78 N3        29.96F
SAVANNAH       MOCLDY    72  70  94 CALM      29.99F
SELMER         PTCLDY    70  70 100 CALM      30.00F
TUPELO         MOCLDY    76  66  71 NE6       29.97F
TUSCALOOSA     MOCLDY    79  68  69 NE8       29.93F
$$





Office: BMX ASUS44 KBMX 170410 RWRAL ALABAMA REGIONAL WEATHER ROUNDUP NATIONAL WEATHER SERVICE BIRMINGHAM AL 1100 PM CDT TUE AUG 16 2022 NOTE: "FAIR" INDICATES FEW OR NO CLOUDS BELOW 12,000 FEET WITH NO SIGNIFICANT WEATHER AND/OR OBSTRUCTIONS TO VISIBILITY. THE REMARK "TC" DENOTES TEMPERATURE IN DEGREES CELSIUS. ALZ001>011-014-016>018-020-170500- NORTH ALABAMA CITY SKY/WX TMP DP RH WIND PRES REMARKS MUSCLE SHOALS CLOUDY 74 66 76 VRB3 29.99F HUNTSVILLE CLOUDY 74 67 78 N3 29.98F DECATUR CLOUDY 72 68 87 N3 29.99F HALEYVILLE FAIR 70 67 90 CALM 30.02F GADSDEN MOCLDY 72 70 93 CALM 29.98S $$ ALZ012-013-022-023-030>036-040>044-170500- WEST CENTRAL ALABAMA CITY SKY/WX TMP DP RH WIND PRES REMARKS TUSCALOOSA MOCLDY 79 68 69 NE8 29.93F DEMOPOLIS FAIR 75 71 89 W6 29.94S $$ ALZ015-024>026-033>036-041>044-170500- CENTRAL ALABAMA CITY SKY/WX TMP DP RH WIND PRES REMARKS BIRMINGHAM MOCLDY 74 65 73 CALM 29.99S MONTGOMERY MOCLDY 77 71 82 CALM 29.92S SHELBY CO ARPT MOCLDY 77 67 71 N5 29.95F MAXWELL AFB MOCLDY 77 68 74 CALM 29.90S GREENVILLE FAIR 77 72 84 W6 29.93S SELMA FAIR 77 73 88 CALM 29.92F PRATTVILLE FAIR 75 70 86 CALM 29.91F BESSEMER FAIR 75 68 78 N6 29.97F TALLADEGA FAIR 74 69 83 CALM 29.97S PELL CITY CLOUDY 70 68 94 CALM 29.96F SYLACAUGA MOCLDY 75 69 82 E3 29.95S $$ ALZ019-021-028-029-037-038-045>048-170500- EAST CENTRAL ALABAMA CITY SKY/WX TMP DP RH WIND PRES REMARKS ANNISTON PTCLDY 74 68 81 CALM 29.96S ALEXANDER CITY MOCLDY 76 72 87 N5 29.94F AUBURN MOCLDY 75 68 78 NE5 29.96F $$ ALZ051>064-170500- SOUTHWEST ALABAMA CITY SKY/WX TMP DP RH WIND PRES REMARKS MOBILE CLOUDY 75 74 96 SW5 29.92F BROOKLEY FIELD CLOUDY 75 72 90 W6 29.93F EVERGREEN CLOUDY 77 69 76 CALM 29.93F $$ ALZ049-050-065>069-170500- SOUTHEAST ALABAMA CITY SKY/WX TMP DP RH WIND PRES REMARKS DOTHAN MOCLDY 79 76 90 CALM 29.95S OZARK MOCLDY 77 73 86 CALM 29.91S TROY MOCLDY 77 71 82 CALM 29.93S EUFAULA FAIR 74 72 93 CALM 29.93S $$